Weather History for KAVL - June, 2008

Change the Weather History Date:

Tuesday, June 10, 2008

  Actual Average Record
Temperature  
Mean Temperature 77 °F 69 °F  
Max Temperature 90 °F 80 °F 93 °F (1947)
Min Temperature 64 °F 58 °F 44 °F (1988)
Degree Days  
Heating Degree Days 0 1  
Month to date heating degree days 0 10  
Since 1 June heating degree days 10  
Since 1 July heating degree days 3947 4191  
Cooling Degree Days 12 5  
Month to date cooling degree days 102 44  
Year to date cooling degree days 141 102  
Since 1 June cooling degree days 44  
Growing Degree Days 26 (Base 50)    
Moisture  
Dew Point 65 °F    
Average Humidity 70    
Maximum Humidity 100    
Minimum Humidity 40    
Precipitation  
Precipitation 0.22 in 0.15 in 1.63 in (1921)
Month to date precipitation 0.29 1.47  
Year to date precipitation 15.32 19.72  
Snow  
Snow 0.00 in 0.00 in 0.00 in ()
Month to date snowfall 0.0 0.0  
Since 1 June snowfall 0.0  
Since 1 July snowfall 3.8 9.9  
Snow Depth -    
Sea Level Pressure  
Sea Level Pressure 30.02 in    
Wind  
Wind Speed 5 mph (NW)    
Max Wind Speed 20 mph    
Max Gust Speed 24 mph    
Visibility 7 miles    
Events Rain , Thunderstorm    
T = Trace of Precipitation, MM = Missing Value Source: NWS Daily Summary

Daily Weather History Graph

Daily Weather History Graph

Search for Another Location

Airport or City:

Trip Planner

Search our weather history database for the weather conditions in past years. The results will help you decide how hot, cold, wet, or windy it might be!

Date:

Astronomy

Jun. 10, 2008 Rise Set
Actual Time 6:14 AM EDT 8:45 PM EDT
Civil Twilight 5:44 AM EDT 9:14 PM EDT
Nautical Twilight 5:07 AM EDT 9:51 PM EDT
Astronomical Twilight 4:27 AM EDT 10:32 PM EDT
Moon 1:35 PM EDT (6/10) 1:27 AM EDT (6/10)
Length of Visible Light 15h 30m
Length of Day
14h 30m
Waxing Crescent, 50% of the Moon is Illuminated
Jun 10
Waxing Crescent
Jun 18
Full
Jun 26
Last Quarter
Jul 2
New
Jul 10
First Quarter

Hourly Weather History & Observations

Time (EDT) Temp. Heat Index Dew Point Humidity Pressure Visibility Wind Dir Wind Speed Gust Speed Precip Events Conditions
12:23 AM 73.4 °F - 64.4 °F 73% 30.10 in 9.0 mi Calm Calm - N/A Thunderstorm Scattered Clouds
12:35 AM 71.6 °F - 64.4 °F 78% 30.10 in 9.0 mi SW 3.5 mph - N/A Thunderstorm Scattered Clouds
12:54 AM 73.9 °F - 64.0 °F 71% 29.99 in 9.0 mi Calm Calm - N/A   Partly Cloudy
1:54 AM 71.1 °F - 63.0 °F 75% 29.98 in 8.0 mi West 3.5 mph - N/A   Clear
2:54 AM 70.0 °F - 64.0 °F 81% 29.97 in 8.0 mi Calm Calm - N/A   Clear
3:54 AM 69.1 °F - 64.0 °F 84% 29.96 in 7.0 mi Calm Calm - N/A   Clear
4:54 AM 68.0 °F - 64.0 °F 87% 29.97 in 7.0 mi Calm Calm - N/A   Clear
5:54 AM 66.0 °F - 63.0 °F 90% 29.98 in 7.0 mi Calm Calm - N/A   Clear
6:54 AM 64.9 °F - 63.0 °F 93% 29.99 in 4.0 mi Calm Calm - N/A   Clear
7:54 AM 69.1 °F - 64.0 °F 84% 30.01 in 5.0 mi NNW 3.5 mph - N/A   Haze
8:54 AM 73.0 °F - 64.9 °F 76% 30.02 in 6.0 mi NNW 5.8 mph - N/A   Haze
9:54 AM 78.1 °F - 64.9 °F 64% 30.01 in 7.0 mi NW 5.8 mph - N/A   Clear
10:54 AM 84.0 °F 84.9 °F 63.0 °F 49% 30.00 in 10.0 mi NNW 11.5 mph - N/A   Clear
11:54 AM 86.0 °F 86.3 °F 62.1 °F 44% 29.99 in 10.0 mi Variable 4.6 mph - N/A   Clear
12:54 PM 87.1 °F 87.5 °F 62.1 °F 43% 29.98 in 10.0 mi Variable 4.6 mph - N/A   Clear
1:54 PM 88.0 °F 87.6 °F 60.1 °F 39% 29.96 in 10.0 mi Variable 3.5 mph - N/A   Clear
2:52 PM 87.8 °F 88.5 °F 62.6 °F 43% 30.03 in 10.0 mi SE 9.2 mph - N/A Thunderstorm Thunderstorm
2:54 PM 87.1 °F 87.8 °F 63.0 °F 44% 29.94 in 10.0 mi SE 8.1 mph - N/A Thunderstorm Thunderstorm
3:54 PM 75.0 °F - 69.1 °F 82% 29.97 in 6.0 mi North 15.0 mph - 0.02 in Rain , Thunderstorm Light Thunderstorms and Rain
4:54 PM 71.1 °F - 68.0 °F 90% 30.01 in 6.0 mi NNW 10.4 mph - 0.00 in Rain , Thunderstorm Light Thunderstorms and Rain
5:35 PM 69.8 °F - 64.4 °F 83% 30.08 in 1.8 mi North 10.4 mph - 0.03 in Rain , Thunderstorm Light Thunderstorms and Rain
5:42 PM 66.2 °F - 64.4 °F 94% 30.08 in 1.8 mi NE 8.1 mph - 0.05 in Rain Heavy Rain
5:49 PM 68.0 °F - 64.4 °F 88% 30.08 in 2.0 mi Variable 5.8 mph - 0.13 in Rain Light Rain
5:54 PM 68.0 °F - 66.0 °F 93% 30.02 in 6.0 mi Calm Calm - 0.13 in Rain Light Rain
5:59 PM 68.0 °F - 66.2 °F 94% 30.08 in 6.0 mi Variable 3.5 mph - 0.00 in Rain , Thunderstorm Light Thunderstorms and Rain
6:31 PM 66.2 °F - 66.2 °F 100% 30.08 in 1.8 mi NW 8.1 mph - 0.05 in Rain , Thunderstorm Thunderstorms and Rain
6:34 PM 66.2 °F - 66.2 °F 100% 30.08 in 2.0 mi West 5.8 mph - 0.06 in Rain , Thunderstorm Thunderstorms and Rain
6:44 PM 68.0 °F - 66.2 °F 94% 30.08 in 6.0 mi Variable 4.6 mph - 0.07 in Rain , Thunderstorm Light Thunderstorms and Rain
6:52 PM 69.8 °F - 66.2 °F 88% 30.08 in 9.0 mi Variable 3.5 mph - 0.07 in Thunderstorm Thunderstorm
6:54 PM 69.1 °F - 66.9 °F 93% 30.02 in 8.0 mi WSW 5.8 mph - 0.07 in   Scattered Clouds
7:54 PM 71.1 °F - 66.9 °F 87% 30.00 in 10.0 mi NNW 4.6 mph - N/A   Clear
8:54 PM 68.0 °F - 66.9 °F 96% 30.01 in 8.0 mi NW 5.8 mph - N/A   Clear
9:54 PM 68.0 °F - 66.0 °F 93% 30.02 in 8.0 mi NW 5.8 mph - N/A   Clear
10:54 PM 66.9 °F - 66.0 °F 97% 30.02 in 6.0 mi NNW 5.8 mph - N/A   Clear
11:54 PM 66.0 °F - 64.9 °F 96% 30.03 in 6.0 mi NNW 3.5 mph - N/A   Clear